Precipitable_Water
0.78 0.74 0.69 0.67 0.65 0.60 0.58 0.61 0.65 0.68 0.65 0.62 0.62 0.62 0.63 0.61 0.60 0.53 0.39 0.38 0.44 0.62 0.54 0.49 0.42 0.38 0.40 0.35 0.38 0.39 0.21 0.16 0.15 0.17 0.20 0.29 0.28 0.32 0.36 0.34 0.40 0.47 0.45 0.47 0.62
0.80 0.76 0.73 0.69 0.65 0.64 0.62 0.60 0.61 0.66 0.66 0.64 0.62 0.61 0.60 0.58 0.46 0.39 0.45 0.49 0.52 0.59 0.44 0.40 0.38 0.40 0.34 0.34 0.32 0.26 0.18 0.16 0.21 0.24 0.24 0.29 0.29 0.30 0.31 0.34 0.37 0.42 0.52 0.58 0.60
0.81 0.78 0.73 0.70 0.66 0.63 0.65 0.61 0.59 0.61 0.65 0.65 0.63 0.60 0.59 0.55 0.34 0.29 0.53 0.49 0.56 0.57 0.48 0.41 0.39 0.36 0.29 0.35 0.29 0.25 0.17 0.21 0.24 0.28 0.31 0.28 0.28 0.31 0.29 0.29 0.34 0.35 0.46 0.54 0.57
0.82 0.80 0.78 0.74 0.70 0.65 0.63 0.64 0.62 0.61 0.61 0.64 0.65 0.63 0.60 0.48 0.21 0.42 0.53 0.55 0.63 0.58 0.49 0.41 0.39 0.32 0.28 0.27 0.31 0.22 0.25 0.26 0.27 0.30 0.29 0.27 0.30 0.27 0.27 0.27 0.34 0.44 0.49 0.53 0.53
0.83 0.80 0.78 0.77 0.75 0.71 0.66 0.65 0.64 0.64 0.63 0.64 0.68 0.62 0.50 0.34 0.30 0.55 0.62 0.61 0.61 0.55 0.47 0.41 0.35 0.33 0.29 0.32 0.33 0.27 0.26 0.28 0.31 0.30 0.28 0.28 0.26 0.26 0.25 0.31 0.41 0.50 0.55 0.52 0.55
0.87 0.82 0.79 0.75 0.75 0.74 0.73 0.70 0.67 0.65 0.66 0.66 0.68 0.68 0.44 0.27 0.49 0.61 0.60 0.59 0.50 0.46 0.42 0.45 0.38 0.38 0.35 0.34 0.32 0.31 0.29 0.29 0.29 0.27 0.26 0.24 0.25 0.26 0.26 0.37 0.40 0.47 0.52 0.55 0.54
0.68 0.74 0.79 0.77 0.75 0.72 0.74 0.76 0.72 0.67 0.67 0.69 0.71 0.58 0.41 0.33 0.54 0.66 0.63 0.52 0.49 0.44 0.37 0.43 0.48 0.42 0.38 0.32 0.36 0.33 0.29 0.31 0.28 0.27 0.25 0.26 0.21 0.22 0.29 0.38 0.37 0.45 0.52 0.57 0.56
0.59 0.59 0.63 0.65 0.65 0.74 0.74 0.75 0.77 0.73 0.71 0.74 0.78 0.59 0.33 0.48 0.57 0.58 0.61 0.52 0.49 0.47 0.42 0.43 0.46 0.43 0.40 0.39 0.35 0.29 0.29 0.22 0.27 0.28 0.28 0.26 0.18 0.23 0.32 0.34 0.36 0.43 0.48 0.52 0.55
0.58 0.57 0.55 0.59 0.64 0.61 0.65 0.79 0.80 0.75 0.78 0.84 0.72 0.56 0.35 0.51 0.48 0.55 0.56 0.46 0.47 0.45 0.44 0.43 0.44 0.36 0.36 0.32 0.27 0.28 0.21 0.22 0.23 0.30 0.28 0.26 0.21 0.26 0.34 0.34 0.35 0.41 0.46 0.51 0.56
0.64 0.59 0.58 0.59 0.56 0.61 0.65 0.66 0.78 0.85 0.81 0.82 0.79 0.55 0.47 0.40 0.46 0.52 0.55 0.49 0.44 0.42 0.39 0.38 0.35 0.30 0.30 0.26 0.19 0.21 0.22 0.25 0.23 0.27 0.29 0.26 0.24 0.29 0.34 0.36 0.35 0.40 0.46 0.49 0.52
0.69 0.69 0.67 0.67 0.69 0.55 0.58 0.69 0.49 0.56 0.65 0.55 0.54 0.53 0.53 0.51 0.52 0.49 0.49 0.43 0.43 0.38 0.30 0.35 0.28 0.23 0.24 0.27 0.26 0.24 0.23 0.22 0.26 0.32 0.29 0.27 0.26 0.29 0.32 0.35 0.34 0.38 0.43 0.46 0.50
0.70 0.69 0.67 0.69 0.72 0.66 0.57 0.47 0.53 0.65 0.53 0.68 0.63 0.60 0.59 0.55 0.43 0.45 0.50 0.36 0.34 0.28 0.32 0.30 0.24 0.28 0.29 0.30 0.28 0.25 0.22 0.22 0.26 0.30 0.29 0.28 0.26 0.30 0.32 0.31 0.32 0.33 0.39 0.42 0.48
0.67 0.69 0.68 0.70 0.72 0.65 0.55 0.52 0.61 0.63 0.40 0.49 0.66 0.56 0.52 0.55 0.46 0.44 0.45 0.39 0.34 0.29 0.28 0.25 0.27 0.30 0.28 0.27 0.25 0.24 0.23 0.23 0.23 0.28 0.31 0.28 0.24 0.26 0.30 0.32 0.33 0.36 0.37 0.42 0.42
0.69 0.65 0.66 0.70 0.62 0.54 0.50 0.62 0.67 0.62 0.32 0.30 0.44 0.55 0.56 0.53 0.44 0.52 0.49 0.41 0.36 0.30 0.30 0.27 0.31 0.30 0.27 0.25 0.26 0.21 0.27 0.27 0.26 0.24 0.19 0.27 0.16 0.23 0.26 0.28 0.31 0.32 0.36 0.39 0.43
0.68 0.69 0.68 0.70 0.63 0.52 0.58 0.63 0.64 0.57 0.19 0.34 0.39 0.57 0.55 0.49 0.49 0.48 0.52 0.45 0.35 0.32 0.32 0.26 0.27 0.26 0.26 0.25 0.29 0.24 0.30 0.28 0.28 0.25 0.24 0.24 0.20 0.19 0.25 0.25 0.28 0.32 0.34 0.39 0.43
0.55 0.65 0.70 0.68 0.70 0.67 0.66 0.62 0.56 0.31 0.17 0.33 0.41 0.40 0.43 0.46 0.47 0.50 0.47 0.48 0.44 0.37 0.36 0.31 0.36 0.33 0.29 0.31 0.31 0.33 0.30 0.30 0.30 0.27 0.18 0.23 0.21 0.18 0.20 0.21 0.25 0.30 0.34 0.40 0.47
0.50 0.65 0.68 0.74 0.56 0.76 0.62 0.52 0.29 0.20 0.34 0.32 0.33 0.38 0.38 0.39 0.42 0.44 0.43 0.39 0.34 0.29 0.28 0.32 0.31 0.35 0.35 0.29 0.33 0.31 0.27 0.20 0.18 0.19 0.16 0.24 0.21 0.20 0.23 0.24 0.28 0.29 0.33 0.37 0.45
0.50 0.63 0.71 0.71 0.75 0.76 0.57 0.37 0.22 0.28 0.26 0.44 0.44 0.39 0.34 0.38 0.39 0.40 0.39 0.36 0.41 0.38 0.32 0.28 0.25 0.31 0.36 0.31 0.27 0.27 0.26 0.19 0.15 0.15 0.16 0.24 0.17 0.18 0.25 0.28 0.30 0.32 0.35 0.38 0.41
0.57 0.59 0.67 0.73 0.76 0.73 0.47 0.29 0.28 0.36 0.37 0.35 0.41 0.35 0.35 0.37 0.36 0.38 0.36 0.35 0.38 0.39 0.31 0.30 0.29 0.38 0.39 0.38 0.34 0.29 0.24 0.29 0.23 0.23 0.18 0.19 0.20 0.23 0.25 0.25 0.29 0.33 0.34 0.34 0.37
0.53 0.60 0.64 0.74 0.76 0.65 0.42 0.34 0.39 0.48 0.48 0.41 0.30 0.38 0.35 0.37 0.35 0.37 0.37 0.40 0.37 0.40 0.42 0.35 0.28 0.37 0.39 0.42 0.40 0.34 0.35 0.25 0.26 0.17 0.15 0.16 0.16 0.16 0.20 0.24 0.30 0.31 0.32 0.34 0.38
0.52 0.47 0.67 0.85 0.76 0.49 0.31 0.37 0.44 0.53 0.55 0.46 0.40 0.38 0.38 0.35 0.35 0.34 0.34 0.38 0.41 0.41 0.42 0.38 0.33 0.32 0.38 0.33 0.31 0.33 0.29 0.30 0.28 0.24 0.17 0.15 0.15 0.24 0.24 0.26 0.27 0.32 0.35 0.35 0.38
0.40 0.30 0.65 0.73 0.44 0.46 0.35 0.36 0.45 0.46 0.52 0.46 0.47 0.43 0.41 0.42 0.38 0.35 0.33 0.37 0.45 0.44 0.38 0.40 0.34 0.27 0.29 0.37 0.40 0.37 0.31 0.30 0.23 0.21 0.23 0.21 0.16 0.28 0.27 0.29 0.28 0.30 0.35 0.39 0.41
0.29 0.35 0.57 0.57 0.31 0.37 0.45 0.45 0.49 0.44 0.39 0.36 0.34 0.37 0.40 0.38 0.35 0.39 0.40 0.46 0.46 0.44 0.39 0.43 0.34 0.26 0.26 0.31 0.35 0.31 0.32 0.31 0.31 0.28 0.21 0.19 0.17 0.30 0.30 0.30 0.30 0.30 0.34 0.38 0.42
0.28 0.18 0.35 0.42 0.40 0.33 0.36 0.39 0.41 0.53 0.48 0.49 0.44 0.44 0.39 0.36 0.41 0.35 0.35 0.41 0.48 0.47 0.48 0.45 0.37 0.32 0.24 0.26 0.30 0.27 0.30 0.32 0.30 0.24 0.21 0.20 0.21 0.26 0.28 0.27 0.30 0.32 0.37 0.40 0.43
0.26 0.19 0.26 0.16 0.23 0.30 0.32 0.35 0.35 0.36 0.46 0.48 0.41 0.44 0.41 0.34 0.34 0.33 0.36 0.38 0.39 0.45 0.47 0.47 0.32 0.34 0.35 0.34 0.33 0.31 0.30 0.31 0.29 0.28 0.26 0.24 0.26 0.29 0.30 0.29 0.32 0.35 0.38 0.40 0.42
0.13 0.15 0.25 0.18 0.23 0.23 0.26 0.24 0.25 0.35 0.39 0.36 0.37 0.41 0.41 0.36 0.39 0.37 0.38 0.37 0.36 0.41 0.39 0.43 0.32 0.35 0.29 0.32 0.33 0.30 0.31 0.31 0.31 0.31 0.28 0.27 0.25 0.34 0.34 0.35 0.35 0.37 0.39 0.39 0.41
0.19 0.25 0.23 0.13 0.17 0.17 0.17 0.19 0.21 0.31 0.34 0.38 0.39 0.37 0.37 0.40 0.48 0.51 0.52 0.50 0.47 0.42 0.39 0.37 0.35 0.31 0.25 0.31 0.30 0.26 0.27 0.30 0.32 0.32 0.31 0.25 0.28 0.34 0.34 0.35 0.36 0.37 0.40 0.42 0.45
Wind_Speed
15 15 15 14 14 14 15 15 16 16 16 16 15 15 15 15 16 16 18 16 18 17 18 18 17 17 17 17 16 15 13 15 14 15 13 14 13 12 11 11 11 12 11 12 15
17 17 16 16 16 16 16 17 17 17 17 18 17 17 16 15 16 18 18 17 18 19 18 18 18 18 17 17 16 15 15 17 15 14 15 15 14 14 12 12 11 12 11 14 16
18 19 18 18 18 18 18 18 19 19 19 19 19 19 18 16 16 18 18 20 20 19 19 18 18 17 16 16 17 17 16 16 15 14 14 15 15 15 13 15 15 15 15 16 17
20 20 20 20 20 20 20 20 20 21 21 21 21 21 20 18 16 16 18 20 21 20 18 18 18 17 17 17 18 15 18 16 16 16 15 16 15 15 17 16 16 17 18 18 18
22 22 23 23 23 22 22 22 22 22 22 22 23 23 22 21 22 16 16 20 20 20 20 20 19 19 18 18 17 18 16 16 17 17 16 16 16 17 17 15 15 17 18 18 19
25 26 26 26 25 25 25 24 24 24 24 24 24 24 24 23 22 22 21 19 21 22 21 20 19 18 19 18 18 16 17 16 16 16 16 16 17 17 16 15 16 18 20 19 20
28 28 28 29 28 28 27 27 26 26 25 25 25 25 26 25 23 23 22 22 22 21 20 22 18 20 17 17 17 16 15 16 17 17 16 16 16 18 17 17 18 19 19 19 20
27 28 28 29 30 30 29 28 27 27 27 26 26 26 27 25 28 25 24 23 23 23 21 22 20 19 19 17 15 16 15 15 14 16 16 16 16 18 19 19 20 20 20 20 21
28 27 27 27 28 29 30 31 29 27 27 27 27 26 27 25 27 28 27 24 24 23 22 22 21 20 19 17 16 18 16 16 15 18 16 18 17 17 19 20 20 20 20 20 21
27 26 25 26 26 26 26 27 28 30 28 27 29 27 29 25 27 28 27 27 25 24 22 22 22 22 20 19 19 17 17 18 18 18 18 18 20 17 19 20 21 21 21 21 22
26 25 25 24 23 24 22 23 25 28 30 32 27 29 26 25 26 27 29 27 25 25 26 25 24 26 27 22 19 18 18 17 16 17 18 21 20 21 19 20 21 22 23 23 23
26 24 23 23 23 22 20 20 22 26 27 34 34 32 28 25 24 26 29 26 27 27 25 24 28 27 23 24 24 21 19 19 17 16 17 17 22 22 22 23 24 24 24 23 24
25 24 23 23 23 19 18 19 20 21 25 27 33 33 31 28 26 29 29 27 26 26 29 28 24 25 24 24 25 25 25 22 20 17 18 17 21 21 23 24 25 26 27 26 26
25 24 23 23 18 17 16 16 17 18 20 23 25 29 31 29 27 28 31 26 26 29 25 27 28 24 26 27 25 26 24 22 21 19 21 19 21 22 22 25 26 27 26 27 27
25 24 22 19 18 16 15 15 13 12 14 16 19 21 25 29 26 26 29 28 27 25 24 27 24 26 24 25 25 25 22 23 22 21 19 21 18 22 20 23 26 27 29 29 29
25 25 21 16 15 15 15 12 10 11 15 13 13 17 20 24 23 24 25 26 26 24 24 26 23 23 27 24 25 23 19 17 18 20 23 25 23 23 22 22 22 23 27 30 30
25 23 18 15 13 12 10 7 7 12 10 12 14 14 16 19 20 22 25 31 25 23 27 23 24 23 22 20 21 23 19 18 19 21 24 21 23 32 23 22 22 24 27 28 30
24 20 17 14 12 10 7 6 10 9 14 10 7 12 14 16 19 20 21 25 28 23 22 24 24 25 24 24 24 24 24 21 21 22 23 21 26 26 23 24 24 24 26 27 28
21 17 15 12 10 9 7 7 9 10 10 11 11 10 12 15 15 16 20 22 26 28 25 22 25 23 23 24 23 25 26 24 19 19 19 23 26 27 23 23 23 24 23 27 28
19 16 14 11 4 6 6 10 10 7 9 9 12 13 12 12 14 16 18 17 21 25 25 24 20 22 24 24 25 25 24 21 22 20 23 24 25 24 21 25 23 22 22 23 26
21 17 16 9 5 5 8 9 9 9 5 8 9 11 11 12 14 17 17 16 17 18 24 24 22 21 22 26 26 24 24 23 22 24 22 22 25 24 24 23 23 22 22 23 24
22 19 17 10 7 8 9 10 9 9 11 14 12 12 13 14 15 17 18 18 15 17 20 22 20 23 24 22 24 25 27 27 23 25 24 24 29 21 19 19 19 20 21 22 22
20 19 16 14 10 10 11 12 13 12 12 12 14 13 14 16 14 17 21 18 18 16 19 21 21 18 19 21 23 25 27 26 25 21 26 22 27 21 22 21 19 18 19 19 20
21 19 18 16 13 11 12 12 12 13 14 14 16 17 18 19 20 18 18 17 18 19 17 19 22 24 26 19 17 22 26 28 26 24 28 30 26 22 21 19 19 19 20 21 22
21 19 18 18 17 14 12 11 10 11 12 13 13 14 14 17 20 23 23 21 19 19 20 21 21 23 25 23 22 23 21 23 30 34 26 30 30 26 25 23 22 21 21 22 22
22 21 21 20 18 15 13 12 12 11 11 13 14 14 16 16 17 17 18 21 23 22 22 22 21 21 23 22 22 25 25 25 29 27 28 26 28 23 23 22 24 25 25 24 23
25 24 22 21 19 16 14 14 14 13 14 13 14 16 17 18 16 16 18 20 21 21 24 23 22 20 24 21 21 26 28 28 26 26 28 30 30 24 24 25 26 26 27 26 25
Wind_Direction
302 298 294 290 285 278 270 264 259 254 250 246 243 241 236 236 233 230 228 224 220 211 210 209 211 211 213 217 220 222 226 230 233 224 229 220 228 227 231 219 230 234 229 219 196
299 296 292 287 283 278 272 266 260 255 251 247 243 240 237 237 233 233 227 224 218 213 212 212 213 215 221 222 226 224 227 229 233 232 229 226 229 223 225 227 237 233 229 201 199
299 294 291 287 282 278 273 268 261 256 251 246 242 239 236 233 236 234 227 223 218 216 216 215 215 217 222 224 225 225 229 229 231 231 232 226 232 233 223 234 234 227 209 207 205
299 294 290 286 282 278 273 268 262 255 251 247 242 238 233 230 230 234 227 217 216 216 215 217 218 220 224 225 227 227 232 229 230 235 232 231 231 235 232 240 233 221 214 211 212
299 294 290 286 281 277 272 267 262 256 251 246 241 236 233 232 233 232 221 217 216 217 219 221 223 225 228 229 227 229 232 229 232 234 236 235 236 237 237 240 227 219 217 216 216
299 294 290 285 281 276 271 267 261 255 250 246 240 236 235 234 234 230 225 220 219 220 222 220 225 227 228 230 228 231 228 230 231 234 236 234 237 236 239 231 222 218 220 221 219
300 294 289 285 280 276 271 266 261 255 250 245 240 238 238 235 233 227 225 225 223 222 224 224 229 228 231 231 229 227 230 235 233 234 237 234 242 240 236 226 221 223 226 225 223
305 300 295 290 283 277 271 267 261 255 249 244 241 239 241 237 232 228 226 225 225 225 228 225 227 230 230 229 230 228 233 233 237 228 238 232 247 243 232 225 225 226 228 227 226
310 306 302 297 291 282 272 264 258 253 247 243 240 240 242 236 230 228 226 225 224 225 228 225 225 228 227 226 233 234 233 232 244 231 235 234 248 248 233 228 227 228 228 228 228
313 310 307 305 298 290 278 264 255 248 245 242 243 241 241 237 231 225 225 222 225 223 226 226 227 227 228 226 231 231 236 238 237 236 236 240 250 248 236 231 229 231 231 231 230
316 312 310 308 306 296 282 268 258 249 244 239 241 241 242 235 228 225 222 221 223 224 225 228 227 227 228 229 232 232 233 235 240 243 242 244 252 245 238 236 236 235 234 234 234
317 312 309 309 307 301 284 271 261 253 254 241 241 242 239 233 228 224 218 220 223 226 224 228 231 232 230 231 233 235 236 240 244 245 242 247 250 248 241 241 237 235 237 236 236
319 314 309 308 306 302 286 273 268 265 254 248 238 237 233 230 231 222 216 223 225 224 225 228 237 227 229 230 231 237 237 239 243 249 251 256 257 247 247 245 243 243 241 239 234
318 314 310 309 302 303 291 283 273 260 262 250 237 237 228 228 233 227 221 224 228 225 228 236 234 229 230 233 230 237 238 238 241 245 248 245 257 252 249 249 245 242 240 238 235
320 314 309 307 301 298 293 288 271 266 262 247 234 233 226 223 227 228 224 226 227 226 225 235 234 231 232 235 230 240 235 236 240 242 248 248 257 257 251 252 250 245 241 237 234
322 318 306 300 297 298 296 282 262 264 254 253 235 229 221 225 229 227 222 226 230 227 233 232 235 234 234 235 232 229 233 241 244 245 252 244 246 258 249 251 253 249 245 240 237
322 322 312 297 294 303 296 265 274 256 266 252 238 229 227 223 225 224 220 221 225 226 229 235 235 237 233 231 232 229 226 242 248 246 249 251 250 256 257 255 254 251 244 242 236
324 318 317 298 283 294 278 272 262 272 249 251 252 233 225 222 226 222 218 223 230 232 233 229 238 229 232 232 229 230 225 230 236 244 252 248 250 258 260 258 259 260 253 243 237
334 329 324 311 272 272 262 268 274 275 267 251 245 240 234 233 225 223 227 230 229 226 231 231 239 237 235 235 230 230 232 233 241 253 255 250 260 264 258 259 259 260 251 239 236
355 350 343 336 271 269 267 278 280 273 268 257 237 223 239 239 223 223 225 236 236 231 232 234 238 238 235 233 234 232 230 234 240 243 250 255 260 258 260 259 257 258 245 238 235
2 358 349 337 309 281 276 277 275 255 259 249 250 254 252 246 244 236 237 241 239 240 229 230 233 238 233 232 229 233 235 237 238 239 244 256 260 260 258 261 254 252 243 238 235
4 3 358 350 323 290 279 278 285 264 248 250 247 246 245 251 254 246 243 240 244 239 225 230 232 234 235 240 236 237 236 232 236 244 248 250 257 259 265 264 256 244 240 235 234
1 1 1 359 338 309 291 284 283 280 262 258 257 255 252 249 256 243 243 242 244 241 236 227 232 235 241 242 240 238 237 238 240 245 243 245 259 262 263 262 256 238 231 228 228
356 353 351 350 342 327 314 292 278 273 269 265 266 266 262 256 250 254 247 246 246 239 237 234 234 234 238 239 237 239 238 234 234 242 245 247 258 259 260 252 247 236 232 231 229
351 346 343 336 330 315 305 307 299 278 269 268 270 263 265 260 257 250 246 249 248 244 240 234 241 239 242 245 243 243 241 236 232 239 240 256 250 256 252 247 243 237 231 229 229
343 341 336 329 324 315 297 289 288 290 274 269 262 262 264 266 264 258 256 246 243 240 239 235 242 240 248 243 245 248 245 241 242 246 251 253 257 257 256 245 240 235 231 231 231
337 333 331 324 318 310 300 288 280 281 278 271 269 269 267 267 268 259 254 256 246 240 238 240 235 241 248 244 249 257 242 242 244 246 246 248 255 249 250 244 239 237 234 232 232